Theta_e
337 338 337 334 333 331 330 328 328 334 335 334 335 336 338 338 337 335 333 331 330 327 325 324 324 329 330 331 335 334 332 332 331 332 333 333 332 333 333 332 333 333 333
332 328 330 335 334 332 330 328 327 333 333 331 332 335 337 338 338 338 333 331 330 327 324 325 326 328 330 333 334 332 331 330 331 332 333 333 332 332 332 332 332 333 333
323 321 322 330 335 333 331 328 328 328 328 328 327 331 334 336 337 337 334 332 330 326 322 324 328 330 330 331 332 330 330 330 331 333 332 332 332 332 332 332 332 332 332
323 322 321 326 334 335 332 330 328 328 327 326 326 328 333 335 336 335 333 331 327 322 318 325 332 332 329 331 330 330 329 329 331 331 331 331 331 331 331 331 330 330 330
322 322 322 324 332 336 334 331 329 329 328 327 325 324 325 331 331 332 329 324 319 316 326 328 331 330 329 330 330 328 328 330 330 329 329 329 329 329 329 328 326 323 322
323 323 323 325 332 337 336 334 331 329 329 328 325 324 324 324 324 322 321 317 319 319 327 329 330 328 328 328 328 328 329 328 329 328 328 327 327 327 327 323 322 319 317
323 323 324 325 332 335 337 336 334 331 329 328 327 324 322 320 319 318 315 316 325 328 329 330 327 328 328 328 328 329 328 328 328 326 326 326 326 326 325 321 318 314 312
324 324 329 328 335 338 337 337 337 335 331 329 327 324 323 321 319 315 318 327 332 331 329 327 328 327 328 327 327 327 327 326 325 324 326 324 325 325 323 318 314 311 309
325 323 324 331 334 338 337 336 336 336 334 332 331 327 325 322 322 327 330 332 332 330 325 326 326 326 325 325 324 324 322 321 322 322 326 325 323 323 319 313 311 310 307
326 325 325 325 329 333 338 336 337 336 335 332 328 329 325 325 325 327 329 331 331 328 324 325 325 324 324 324 323 323 322 322 320 318 319 323 322 319 315 311 309 309 306
326 329 329 328 325 327 335 337 337 336 335 332 325 325 326 328 326 327 330 328 328 327 323 324 325 325 325 324 324 322 320 319 317 313 313 319 318 314 312 309 311 310 307
327 329 330 330 329 329 331 334 337 337 334 333 331 327 325 327 327 325 327 326 327 326 323 324 326 326 324 324 322 321 321 318 312 310 310 318 318 316 311 307 308 311 311
329 332 330 330 330 329 331 333 332 334 332 331 329 326 325 327 325 325 325 326 326 325 324 324 324 322 322 322 321 321 320 315 309 309 311 317 318 319 309 310 308 307 305
330 331 330 331 331 330 334 332 331 330 331 330 330 327 327 325 325 326 325 327 326 324 323 323 323 321 321 321 322 321 318 313 308 308 309 319 319 314 311 311 307 305 304
330 330 329 329 328 328 330 331 332 332 330 330 329 328 327 326 324 325 325 328 323 323 323 322 322 321 321 322 321 320 320 320 319 310 309 315 316 314 311 312 306 304 303
330 329 327 324 325 328 329 330 329 328 325 325 325 327 327 326 324 327 325 327 320 322 322 321 321 321 321 321 321 320 320 320 319 317 310 311 311 311 307 309 305 304 303
329 328 327 322 326 327 327 329 328 326 324 324 325 325 325 325 327 327 326 327 318 319 318 321 320 321 321 321 321 321 321 320 320 319 312 309 309 309 307 305 305 305 306
329 327 325 320 325 327 328 328 325 324 325 325 327 326 325 325 325 326 328 325 316 314 314 314 320 320 320 321 322 321 321 321 320 319 315 311 310 308 306 306 306 306 307
328 327 325 320 326 327 327 327 324 325 325 325 326 325 324 325 327 326 326 319 311 311 311 314 320 320 320 322 322 322 321 321 320 319 313 311 310 309 307 307 307 308 308
328 327 324 319 325 325 326 326 325 324 326 325 327 327 324 327 327 326 325 317 310 310 310 317 320 320 320 321 321 321 321 321 320 320 317 314 310 309 308 307 308 309 309
328 327 324 319 322 324 327 326 325 324 326 326 327 327 325 325 326 325 320 313 309 308 309 317 319 320 321 321 320 321 321 320 320 320 320 318 315 313 313 314 314 314 314
327 327 324 320 321 323 326 324 325 325 328 327 328 326 323 324 322 319 320 309 309 309 308 310 317 320 319 319 320 321 320 320 320 320 320 320 320 319 318 317 314 313 313
328 327 325 321 320 322 324 323 324 324 326 326 327 327 327 326 325 320 321 310 311 310 308 308 317 319 318 318 320 321 320 321 321 320 321 320 320 320 319 319 318 316 315
328 328 326 323 321 322 322 323 323 324 323 325 325 325 326 326 325 322 324 313 313 311 310 310 314 316 316 318 319 320 321 319 320 320 320 320 319 314 314 318 318 317 317
328 328 327 325 323 321 321 323 322 323 323 321 323 323 325 326 326 324 325 317 315 315 314 320 322 321 320 319 319 318 319 318 318 318 319 318 315 312 315 317 317 316 316
328 328 327 326 324 322 321 322 322 322 322 323 323 323 324 324 326 326 324 321 317 317 317 319 322 321 322 320 319 318 318 318 318 317 314 315 315 314 315 316 316 316 316
Wind_Speed
11 10 10 15 19 20 20 20 21 20 20 21 22 22 24 26 26 26 26 27 25 23 22 21 22 23 21 18 20 21 19 20 22 23 24 25 25 25 25 26 27 26 26
9 7 7 12 20 21 21 21 22 22 19 18 21 23 28 28 26 26 26 26 23 21 20 22 21 22 21 21 22 21 21 22 23 23 24 25 26 25 26 26 27 27 26
8 6 6 11 18 23 24 24 24 24 22 19 19 20 24 25 26 28 26 24 22 22 22 22 23 23 23 21 21 23 24 24 24 25 25 25 25 24 25 24 24 23 24
5 4 5 10 17 24 26 26 26 26 24 21 20 21 23 25 27 27 26 24 23 22 22 24 23 23 21 21 23 20 23 24 25 24 24 25 24 23 22 22 21 20 20
7 5 5 8 15 24 27 27 27 26 24 23 21 23 24 27 26 26 24 24 23 22 24 24 24 23 21 20 21 22 25 25 23 24 23 21 21 19 20 19 17 17 17
3 4 4 7 12 19 26 28 28 27 25 24 23 24 25 25 25 25 24 23 22 22 24 27 27 25 23 23 24 26 25 23 25 22 21 19 19 19 19 16 15 15 15
4 7 8 9 11 14 21 26 28 27 26 25 25 26 26 26 26 25 24 22 21 23 25 28 28 28 27 27 27 24 22 23 23 21 21 20 19 19 16 15 15 14 13
5 7 9 11 12 12 14 21 25 27 27 27 29 28 26 26 25 26 26 26 26 26 27 29 31 31 30 28 25 23 21 19 18 20 22 20 19 18 17 16 14 14 14
6 7 10 13 16 17 18 17 21 24 25 24 28 26 21 22 19 24 26 27 27 26 28 33 32 30 29 27 24 21 19 16 17 21 21 20 19 17 17 14 15 15 15
8 7 8 13 16 18 21 21 22 24 30 26 21 12 22 18 18 23 23 26 25 24 33 33 31 31 29 26 21 20 16 13 11 17 21 21 20 18 18 16 16 16 16
12 10 10 10 14 17 21 23 23 25 31 31 19 30 23 20 28 23 27 25 25 24 35 35 35 31 26 23 20 18 14 11 13 16 20 20 20 20 18 17 17 17 16
14 13 12 13 13 15 17 23 23 26 29 32 33 30 35 29 31 26 25 25 26 26 36 39 35 30 25 25 22 16 12 10 15 18 20 21 20 19 19 18 18 17 17
13 15 14 14 15 15 16 20 21 21 20 25 30 33 30 32 29 35 30 28 29 33 40 40 35 30 27 26 23 17 11 12 16 17 20 21 20 20 18 18 17 17 16
17 15 14 15 17 16 16 20 21 20 19 17 30 32 31 32 24 34 37 36 33 40 42 41 37 31 26 24 22 16 13 14 14 15 18 22 21 19 17 17 16 15 15
20 16 15 15 17 15 14 16 19 20 21 22 29 36 33 37 37 33 44 39 36 46 45 41 36 32 29 27 22 17 16 13 10 11 14 19 19 18 16 16 16 16 15
20 16 13 14 12 12 13 15 17 19 21 26 32 38 39 38 37 46 45 41 37 47 46 43 35 33 31 25 21 19 16 12 9 8 14 16 15 16 15 16 15 15 14
20 17 12 12 12 12 14 13 17 19 22 26 30 35 39 45 39 49 48 44 39 47 47 45 38 35 32 26 20 21 17 13 10 7 12 14 17 16 16 16 16 15 13
23 18 13 12 14 15 15 15 15 16 15 17 26 31 36 43 41 45 48 42 40 45 45 47 44 38 31 24 23 25 18 15 12 8 10 13 16 17 17 17 16 14 13
24 18 14 14 16 16 16 16 15 13 13 16 20 27 30 39 54 55 49 43 43 44 44 48 45 41 31 25 25 23 18 16 12 9 10 13 15 17 17 16 15 14 13
25 18 15 16 18 18 17 18 14 13 12 11 20 27 31 36 40 45 43 43 43 44 45 48 47 40 34 28 23 19 17 18 14 10 10 11 14 15 16 16 17 16 14
27 22 19 19 21 20 20 18 15 16 9 16 14 26 35 31 36 36 38 40 41 43 44 47 46 38 31 27 23 19 19 19 16 14 12 9 12 14 16 16 17 16 15
30 24 21 21 21 20 21 18 16 18 13 17 23 23 21 27 32 33 36 39 42 41 44 45 46 39 32 28 25 25 23 22 22 20 16 13 13 14 16 17 18 19 18
33 27 22 22 21 20 21 17 18 20 19 22 24 22 29 33 37 37 36 39 41 41 43 43 46 40 37 31 29 24 16 11 25 24 22 18 17 17 20 22 21 21 20
35 28 22 21 19 19 19 19 18 25 27 27 28 26 28 34 37 39 40 39 39 38 40 40 44 42 36 37 34 35 25 15 17 14 26 24 20 22 24 28 27 26 24
37 31 26 22 20 18 18 19 17 24 25 24 25 28 31 36 39 39 40 43 39 38 41 39 37 37 37 38 37 35 33 23 21 20 17 25 23 25 32 32 31 30 28
37 32 28 25 21 18 18 21 20 22 23 27 28 31 29 27 40 42 38 39 39 40 39 41 38 36 38 39 39 37 38 35 26 24 22 22 23 29 28 31 36 33 31
Wind_Direction
163 163 166 188 195 193 193 194 189 184 176 166 165 169 171 171 168 164 160 160 160 162 165 166 166 165 162 151 143 142 137 134 137 133 132 130 128 129 128 125 122 118 117
164 165 167 181 197 196 193 196 194 189 186 177 169 170 174 173 172 169 167 165 165 169 172 168 164 165 159 154 149 143 142 140 139 136 132 130 130 132 129 126 123 119 116
158 171 171 182 191 198 196 196 196 194 192 191 186 180 178 173 172 172 172 173 176 176 174 169 167 160 156 157 158 151 149 148 144 140 136 132 135 134 131 127 126 127 124
199 206 198 194 192 198 200 199 198 197 195 190 189 184 179 177 173 176 178 183 182 177 173 164 161 158 160 161 159 162 158 155 151 148 142 138 138 138 135 139 138 137 135
197 217 217 208 200 201 203 203 203 203 202 201 195 192 190 184 184 184 185 184 179 175 164 163 165 163 164 165 166 167 162 159 158 150 145 142 149 148 150 139 144 144 144
196 251 244 224 204 208 209 208 208 208 206 204 201 197 191 188 188 186 182 180 176 176 166 164 165 164 166 170 168 165 165 157 150 148 150 157 153 149 144 148 146 145 145
204 235 226 225 213 216 219 217 215 213 211 208 202 200 192 190 186 183 181 176 175 168 163 166 164 163 169 167 166 166 164 161 163 160 153 157 151 153 146 149 151 150 150
224 245 226 223 218 215 222 225 224 221 217 213 206 196 188 182 181 179 177 171 165 162 166 165 161 168 166 165 168 169 167 174 178 164 157 151 152 145 146 149 156 149 145
227 240 246 228 224 220 217 220 224 224 220 215 196 166 175 175 176 177 174 171 167 167 169 164 167 172 169 167 168 165 167 173 182 173 155 148 150 146 149 148 141 136 136
231 225 231 241 238 233 226 223 218 217 217 207 150 181 175 177 190 185 185 178 175 176 172 166 172 175 172 166 164 164 161 166 179 182 163 154 151 148 147 143 142 141 136
229 234 238 246 244 241 231 225 225 222 227 203 211 205 223 228 198 184 198 186 185 183 173 169 173 177 173 173 165 167 164 168 183 183 167 157 152 152 148 142 141 136 134
230 237 243 249 246 247 230 230 225 227 230 231 227 208 213 206 185 199 200 197 192 190 175 170 173 179 181 169 166 169 167 169 180 178 169 157 150 150 148 145 144 143 142
237 231 246 247 245 240 231 226 225 222 225 218 205 205 207 198 214 194 203 199 193 188 174 172 176 182 181 175 176 168 168 174 175 178 166 156 157 155 150 154 152 153 154
232 235 249 247 245 242 229 222 218 217 205 219 208 201 190 183 182 207 198 200 195 186 177 178 179 183 186 183 177 170 163 161 169 178 170 162 160 159 156 158 160 159 158
228 233 245 254 251 242 230 218 211 212 207 205 200 202 202 205 206 220 204 201 199 185 183 179 180 183 178 175 176 180 169 160 156 175 180 170 166 164 162 168 165 164 164
224 225 250 266 239 217 211 213 209 211 209 212 217 218 220 220 215 191 200 201 197 187 184 182 181 179 175 179 184 185 178 174 167 172 190 183 178 175 174 176 173 173 172
223 223 249 259 229 203 205 219 214 221 228 224 219 218 221 206 196 199 199 201 194 188 183 184 180 181 179 182 185 183 183 183 178 179 199 201 188 185 185 184 183 180 176
215 219 239 246 221 204 216 223 229 238 230 230 223 214 216 211 209 207 201 199 194 190 186 185 181 182 184 184 185 177 185 188 187 190 205 210 202 194 193 190 189 189 187
215 218 233 232 218 210 221 222 228 226 224 222 219 216 212 213 198 202 200 196 191 188 185 183 183 186 182 180 182 181 186 194 192 197 202 208 209 205 199 196 197 201 198
214 216 223 223 217 211 212 207 217 219 233 202 226 211 196 188 190 192 197 194 189 187 186 185 185 188 190 184 179 187 193 196 198 203 197 202 205 208 202 205 208 207 209
211 214 218 214 215 209 211 206 210 215 212 177 198 184 198 206 187 193 199 193 190 190 186 188 188 184 188 186 182 183 189 197 211 212 209 207 206 211 213 214 221 223 224
211 212 214 213 217 215 218 216 214 201 192 188 185 168 171 176 189 195 204 195 192 190 189 191 189 183 187 194 188 180 185 200 210 211 215 221 233 234 235 229 230 234 235
209 212 214 212 217 216 215 214 206 208 194 186 187 196 198 196 198 194 204 198 194 192 190 191 190 192 191 197 202 190 173 204 207 214 218 221 234 245 252 249 246 246 247
211 212 215 211 211 215 216 213 206 204 202 200 202 207 211 209 205 198 201 200 197 195 194 192 194 201 200 200 205 209 208 209 193 212 219 224 237 248 253 254 254 255 256
209 209 213 210 208 213 214 218 207 204 210 216 215 212 215 213 214 206 203 198 201 201 200 197 198 204 209 208 207 212 216 215 219 208 212 223 233 257 251 253 255 257 261
207 208 212 210 210 211 213 212 215 213 214 215 218 221 219 206 196 201 200 200 203 207 207 209 206 212 215 217 220 216 216 216 211 212 222 231 230 250 262 261 256 258 262